www.pogodaiklimat.ru

Погода и климат >> Архив погоды >> Норвегия >> Акселойа


ПОГОДА на Акселойа

  • Прогноз погоды на Акселойа
  • Монитор погоды на Акселойа

АРХИВ ПОГОДЫ на Акселойа

Время (UTC), дата Ветер
(напр.,м/с)
 
Видим.   Явления Облачность Т
(С)
Тd
(С)
f
(%)
Тe
(С)
Тes
(С)
Комфортность P
(гПа)
Po
(гПа)
Тmin
(С)
Tmax
(С)
R
(мм)
R24
(мм)
S
(см)
01 17.03 СВ 9
{10}
н/о н/о -21.0 -24.6 73 -34 -34 опасность
обморожения
1004.9 1004.0
02 17.03 СВ 9
{10}
н/о н/о -20.8 -24.6 71 -34 -34 опасность
обморожения
1004.8 1004.0
03 17.03 В 8
{10}
н/о н/о -21.1 -24.6 73 -34 -34 опасность
обморожения
1005.0 1004.1
04 17.03 В 8
{10}
н/о н/о -21.2 -24.8 73 -34 -34 опасность
обморожения
1004.8 1003.9
05 17.03 В 7
{9}
н/о н/о -21.5 -25.0 73 -34 -34 опасность
обморожения
1004.6 1003.7
06 17.03 В 6
{10}
н/о н/о -21.6 -24.8 75 -33 -33 опасность
обморожения
1004.7 1003.8 -21.7 -20.0
07 17.03 В 5
{7}
н/о н/о -21.1 -24.6 73 -31 -31 опасность
обморожения
1005.2 1004.3
08 17.03 В 8
{8}
н/о н/о -20.6 -24.0 74 -33 -33 опасность
обморожения
1004.5 1003.6
09 17.03 В 6
{9}
н/о н/о -20.1 -23.5 74 -31 -31 опасность
обморожения
1004.7 1003.9
10 17.03 В 8
{9}
н/о н/о -19.3 -22.8 74 -31 -31 опасность
обморожения
1004.3 1003.5
11 17.03 В 7
{10}
н/о н/о -18.6 -21.9 75 -30 -30 1004.5 1003.7
12 17.03 В 7
{10}
н/о н/о -17.9 -22.1 70 -29 -29 1004.9 1004.1
13 17.03 В 6
{8}
н/о н/о -17.3 -21.6 69 -27 -27 1004.9 1004.0
14 17.03 В 6
{7}
н/о н/о -17.1 -21.0 72 -27 -27 1005.0 1004.1
15 17.03 СВ 7
{8}
н/о н/о -16.9 -20.6 73 -28 -28 1004.9 1004.1
16 17.03 СВ 6
{7}
н/о н/о -16.8 -20.1 76 -27 -27 1004.9 1004.1
17 17.03 СВ 7
{8}
н/о н/о -16.7 -19.7 78 -27 -27 1004.9 1004.0
18 17.03 СВ 6
{8}
н/о н/о -16.2 -19.8 74 -26 -26 1004.8 1003.9 -21.6 -16.1
19 17.03 СВ 6
{7}
н/о н/о -15.7 -19.5 73 -25 -25 1005.1 1004.2
20 17.03 СВ 6
{7}
н/о н/о -15.0 -19.0 71 -25 -25 1004.9 1004.0
21 17.03 СВ 6
{7}
н/о н/о -15.3 -19.6 70 -25 -25 1004.9 1004.1
22 17.03 СВ 5
{7}
н/о н/о -15.7 -19.3 74 -25 -25 1004.6 1003.8
23 17.03 СВ 6
{7}
н/о н/о -15.4 -18.3 78 -25 -25 1004.4 1003.5
00 18.03 СВ 7
{8}
н/о н/о -14.5 -19.3 67 -25 -25 1004.4 1003.5
01 18.03 СВ 6
{8}
н/о н/о -14.2 -18.0 73 -24 -24 1004.1 1003.3
02 18.03 СВ 7
{9}
н/о н/о -14.4 -17.6 77 -25 -25 1003.3 1002.4
03 18.03 В 9
{11}
н/о н/о -11.8 -15.2 76 -22 -22 1002.6 1001.7
04 18.03 СВ 8
{11}
н/о н/о -11.8 -14.8 78 -22 -22 1001.4 1000.5
05 18.03 В 5
{11}
н/о н/о -3.4 -8.1 70 -10 -10 999.6 998.7
06 18.03 ЮВ 8
{20}
н/о н/о -2.4 -7.4 68 -10 -10 997.9 997.1 -16.2 -1.3
07 18.03 ЮВ 8
{14}
н/о н/о -1.4 -6.3 69 -9 -9 997.0 996.2
08 18.03 Ю 12
{20}
н/о н/о -0.1 -5.8 65 -9 -9 996.4 995.6
09 18.03 Ю 10
{23}
н/о н/о -0.2 -4.8 71 -8 -8 995.7 994.9
10 18.03 Ю 8
{23}
н/о н/о +0.3 -6.5 60 -7 -7 994.9 994.1
11 18.03 Ю 12
{23}
н/о н/о +0.2 -5.4 66 -8 -8 992.8 992.0
12 18.03 Ю 18
{27}
н/о н/о +0.2 -4.4 71 -10 -10 990.9 990.1
13 18.03 ЮЗ 14
{36}
н/о н/о -1.4 -1.9 96 -11 -11 991.7 990.9
14 18.03 ЮЗ 15
{18}
н/о н/о -2.4 -2.9 96 -13 -13 991.9 991.1
15 18.03 ЮЗ 18
{22}
н/о н/о -3.9 -5.4 89 -16 -16 993.3 992.5
16 18.03 ЮЗ 16
{23}
н/о н/о -4.9 -6.9 86 -16 -16 994.5 993.6
17 18.03 ЮЗ 15
{23}
н/о н/о -6.2 -7.9 88 -18 -18 997.2 996.4
18 18.03 З 16
{36}
н/о н/о -5.9 -9.3 77 -18 -18 997.8 997.0 -6.7 +0.6
19 18.03 З 18
{20}
н/о н/о -6.2 -9.3 79 -18 -18 998.3 997.4
20 18.03 З 16
{20}
н/о н/о -7.0 -8.6 88 -19 -19 999.6 998.7
21 18.03 З 13
{17}
н/о н/о -6.8 -10.5 75 -18 -18 1000.7 999.9
22 18.03 З 12
{15}
н/о н/о -6.7 -9.2 82 -17 -17 1001.7 1000.9
23 18.03 З 11
{16}
н/о н/о -7.2 -9.5 84 -18 -18 1002.3 1001.5
00 19.03 З 11
{20}
н/о н/о -8.0 -9.7 88 -19 -19 1002.7 1001.9
01 19.03 З 9
{14}
н/о н/о -7.4 -10.7 77 -17 -17 1003.2 1002.4
02 19.03 З 10
{14}
н/о н/о -7.7 -10.8 78 -18 -18 1004.0 1003.1
04 19.03 З 8
{10}
н/о н/о -7.8 -11.4 75 -17 -17 1004.5 1003.7
05 19.03 З 7
{11}
н/о н/о -7.6 -11.8 72 -16 -16 1004.9 1004.1
06 19.03 З 6 н/о н/о -7.6 -11.8 72 -16 -16 1005.4 1004.6
07 19.03 З 5
{9}
н/о н/о -7.5 -11.5 73 -15 -15 1005.6 1004.8
08 19.03 ЮЗ 5
{8}
н/о н/о -7.3 -10.6 77 -15 -15 1006.0 1005.1
09 19.03 СВ 1
{7}
н/о н/о -8.2 -10.7 82 -11 -11 1006.5 1005.7
10 19.03 СВ 4
{5}
н/о н/о -8.8 -10.6 87 -16 -16 1006.6 1005.7
11 19.03 СВ 5
{7}
н/о н/о -9.3 -10.9 88 -17 -17 1006.3 1005.5
12 19.03 СВ 7
{9}
н/о н/о -9.5 -11.2 87 -19 -19 1005.6 1004.8
13 19.03 СВ 8
{10}
н/о н/о -9.7 -11.6 86 -19 -19 1005.2 1004.4
14 19.03 СВ 11
{12}
н/о н/о -9.8 -11.9 85 -21 -21 1004.6 1003.7
15 19.03 СВ 11
{14}
н/о н/о -10.2 -12.5 83 -21 -21 1003.6 1002.7
16 19.03 СВ 10
{12}
н/о н/о -8.7 -11.8 78 -19 -19 1002.9 1002.1
18 19.03 В 10 н/о н/о -6.1 -8.2 85 -16 -16 1000.5 999.6
19 19.03 В 12
{15}
н/о н/о -5.8 -8.4 82 -16 -16 999.2 998.4
20 19.03 ЮВ 12
{16}
н/о н/о -5.0 -7.9 80 -15 -15 998.1 997.3
21 19.03 ЮВ 15
{18}
н/о н/о -3.5 -6.9 77 -14 -14 995.4 994.6
22 19.03 ЮВ 16
{19}
н/о н/о -3.1 -6.3 79 -14 -14 993.8 993.0
23 19.03 ЮВ 16
{21}
н/о н/о -1.8 -5.4 76 -12 -12 992.4 991.5
00 20.03 ЮВ 16
{21}
н/о н/о -0.6 -4.2 77 -10 -10 990.7 989.9
01 20.03 ЮВ 15
{17}
н/о н/о +0.1 -3.6 76 -9 -9 989.0 988.2
02 20.03 ЮВ 18
{20}
н/о н/о +0.4 -3.1 77 -9 -9 987.0 986.2
03 20.03 ЮВ 18
{21}
н/о н/о +0.8 -3.3 74 -9 -9 985.7 984.9
04 20.03 ЮВ 17
{21}
н/о н/о +0.8 -2.2 80 -9 -9 984.5 983.7
05 20.03 ЮВ 16
{21}
н/о н/о +1.5 -1.2 82 -8 -8 983.6 982.8
06 20.03 ЮВ 14
{21}
н/о н/о +2.2 -0.7 81 -6 -6 983.0 982.2 -6.5 +2.3
07 20.03 ЮВ 11
{22}
н/о н/о +2.5 -0.6 80 -5 -5 983.5 982.8
08 20.03 ЮВ 10
{24}
н/о н/о +2.3 -0.8 80 -5 -5 983.2 982.4
09 20.03 ЮВ 8
{21}
н/о н/о +2.2 -0.7 81 -5 -5 983.6 982.8
10 20.03 Ю 6
{18}
н/о н/о +2.1 -0.5 83 -4 -4 984.5 983.7
11 20.03 Ю 6
{12}
н/о н/о +2.2 -0.9 80 -4 -4 985.3 984.5
13 20.03 Ю 7
{10}
н/о н/о +0.5 -0.5 93 -7 -7 987.4 986.6
14 20.03 ЮЗ 8
{9}
н/о н/о +0.6 -1.5 86 -7 -7 988.2 987.4
16 20.03 ЮЗ 6
{10}
н/о н/о -0.1 -2.5 84 -7 -7 989.9 989.1
17 20.03 З 7
{9}
н/о н/о -0.4 -3.4 80 -7 -7 990.5 989.7
18 20.03 З 7 н/о н/о -1.0 -3.5 83 -8 -8 991.0 990.2
19 20.03 З 7
{9}
н/о н/о -1.2 -4.2 80 -9 -9 991.2 990.4
20 20.03 З 6
{8}
н/о н/о -1.2 -4.0 81 -8 -8 991.7 990.9
21 20.03 З 5
{7}
н/о н/о -1.3 -4.6 78 -8 -8 992.1 991.3
22 20.03 З 5
{6}
н/о н/о -1.4 -4.7 78 -8 -8 992.5 991.6
23 20.03 З 2
{5}
н/о н/о -1.4 -5.1 76 -5 -5 992.5 991.6
00 21.03 В 1
{9}
н/о н/о -1.9 -4.4 83 -4 -4 992.3 991.5
01 21.03 В 1
{2}
н/о н/о -1.8 -5.0 79 -4 -4 992.3 991.5
02 21.03 В 1
{2}
н/о н/о -2.3 -5.8 77 -4 -4 992.0 991.2
03 21.03 В 1
{2}
н/о н/о -2.9 -5.4 83 -5 -5 991.6 990.8
04 21.03 штиль 0
{1}
н/о н/о -3.3 -5.9 82 -4 -4 991.3 990.5
05 21.03 СВ 4
{4}
н/о н/о -5.3 -7.0 88 -12 -12 990.8 990.0
06 21.03 СВ 5
{6}
н/о н/о -6.4 -8.0 88 -14 -14 990.3 989.5 -6.4 -1.0
08 21.03 В 2
{4}
н/о н/о -6.4 -8.1 88 -11 -11 990.3 989.4
09 21.03 В 2
{3}
н/о н/о -5.9 -8.0 85 -10 -10 990.1 989.3
10 21.03 СВ 2
{3}
н/о н/о -5.7 -8.0 84 -10 -10 989.9 989.1
11 21.03 СВ 2
{2}
н/о н/о -5.6 -7.6 86 -10 -10 989.6 988.8
12 21.03 СВ 4 н/о н/о -5.6 -7.2 88 -12 -12 988.9 988.1
14 21.03 В 8
{10}
н/о н/о -4.9 -7.1 85 -14 -14 987.7 986.8
15 21.03 В 8
{10}
н/о н/о -5.4 -7.3 86 -14 -14 987.3 986.5
17 21.03 В 9
{11}
н/о н/о -4.7 -7.1 83 -14 -14 986.1 985.3
18 21.03 СВ 8 н/о н/о -4.5 -7.1 82 -13 -13 985.5 984.7
19 21.03 СВ 8
{11}
н/о н/о -4.6 -6.9 84 -13 -13 985.3 984.5
20 21.03 СВ 10
{13}
н/о н/о -4.0 -6.6 82 -13 -13 984.3 983.4
21 21.03 СВ 8
{13}
н/о н/о -4.1 -6.3 85 -13 -13 983.8 983.0
22 21.03 В 8
{12}
н/о н/о -2.5 -5.3 81 -11 -11 983.0 982.1
23 21.03 В 12
{14}
н/о н/о -3.6 -5.5 87 -14 -14 981.0 980.2
01 22.03 В 15
{17}
н/о н/о -2.9 -4.8 87 -14 -14 978.5 977.7
02 22.03 В 15
{19}
н/о н/о -2.6 -4.7 85 -13 -13 977.2 976.4
03 22.03 В 14
{18}
н/о н/о -2.6 -4.1 89 -13 -13 977.1 976.3
04 22.03 В 12
{17}
н/о н/о -2.9 -4.0 92 -13 -13 977.7 976.9
05 22.03 Ю 9
{12}
н/о н/о -3.2 -5.1 87 -12 -12 978.4 977.6
06 22.03 Ю 9
{19}
н/о н/о -3.4 -5.0 89 -12 -12 978.5 977.7 -4.7 -2.1
07 22.03 Ю 7
{10}
н/о н/о -3.3 -5.6 84 -11 -11 978.8 978.0
08 22.03 Ю 4
{8}
н/о н/о -3.0 -7.5 71 -9 -9 979.2 978.4
09 22.03 Ю 3
{6}
н/о н/о -3.1 -7.8 70 -8 -8 979.5 978.7
10 22.03 СВ 1
{6}
н/о н/о -3.2 -7.4 73 -5 -5 979.7 978.9
11 22.03 СВ 2
{3}
н/о н/о -3.6 -5.8 85 -8 -8 980.0 979.2
12 22.03 СВ 2
{10}
н/о н/о -3.5 -6.0 83 -8 -8 980.1 979.3
13 22.03
{3}
н/о н/о -3.8 -6.3 83 980.6 979.8
14 22.03 штиль 0
{3}
н/о н/о -4.0 -5.8 87 -5 -5 981.0 980.2
15 22.03 ЮЗ 2
{3}
н/о н/о -2.8 -5.9 79 -7 -7 981.7 980.9
16 22.03 ЮЗ 2
{3}
н/о н/о -2.6 -5.8 79 -6 -6 982.2 981.4
17 22.03 ЮЗ 3
{5}
н/о н/о -2.3 -6.2 75 -7 -7 982.5 981.7
18 22.03 ЮЗ 3
{5}
н/о н/о -1.6 -5.3 76 -6 -6 982.4 981.6 -4.2 -1.5
19 22.03 ЮЗ 5
{6}
н/о н/о -2.4 -4.2 87 -9 -9 982.4 981.6
20 22.03 ЮЗ 5
{7}
н/о н/о -1.3 -3.8 83 -8 -8 982.6 981.8
21 22.03 Ю 6
{7}
н/о н/о -1.3 -4.0 82 -8 -8 982.4 981.6
22 22.03 Ю 5
{7}
н/о н/о -1.3 -3.5 85 -8 -8 982.3 981.5
23 22.03 Ю 4
{7}
н/о н/о -1.4 -2.9 90 -7 -7 982.0 981.2
00 23.03 ЮЗ 3
{7}
н/о н/о -1.5 -3.4 87 -6 -6 981.7 980.9
01 23.03 З 3
{6}
н/о н/о -2.0 -3.9 87 -7 -7 981.2 980.4
02 23.03 СЗ 3
{4}
н/о н/о -2.2 -4.0 87 -7 -7 980.7 979.9
03 23.03 штиль 0
{4}
н/о н/о -2.5 -5.1 82 -4 -4 980.5 979.7
04 23.03 С 2
{2}
н/о н/о -3.2 -5.4 85 -7 -7 980.2 979.4
05 23.03
{2}
н/о н/о -3.4 -5.9 83 979.5 978.7
06 23.03
{6}
н/о н/о -4.5 -6.7 85 979.2 978.4 -4.5 -0.8
07 23.03
{3}
н/о н/о -4.2 -6.5 84 978.7 977.9
08 23.03 С 1
{3}
н/о н/о -3.7 -5.5 87 -6 -6 978.5 977.7
09 23.03 С 1
{1}
н/о н/о -3.5 -5.0 89 -6 -6 978.4 977.6
10 23.03 СВ 3
{4}
н/о н/о -4.1 -5.6 89 -10 -10 978.3 977.5
11 23.03 СВ 3
{4}
н/о н/о -4.2 -5.6 90 -10 -10 978.1 977.3
12 23.03 В 5
{6}
н/о н/о -4.6 -5.8 91 -12 -12 978.0 977.2
13 23.03 СВ 6
{8}
н/о н/о -4.5 -6.0 89 -12 -12 977.8 977.0
14 23.03 В 8
{9}
н/о н/о -4.7 -6.5 87 -13 -13 977.7 976.9
15 23.03 В 8
{9}
н/о н/о -4.6 -6.9 84 -13 -13 977.9 977.1
16 23.03 В 9
{11}
н/о н/о -4.9 -6.9 86 -14 -14 978.0 977.2
17 23.03 СВ 10
{13}
н/о н/о -5.3 -8.5 78 -15 -15 978.0 977.2
18 23.03 СВ 11
{13}
н/о н/о -5.6 -8.8 78 -16 -16 978.3 977.5 -5.7 -3.4
19 23.03 В 10
{12}
н/о н/о -5.2 -9.0 75 -15 -15 979.0 978.2
20 23.03 СВ 10
{12}
н/о н/о -6.0 -10.4 71 -16 -16 980.0 979.2
21 23.03 СВ 11
{12}
н/о н/о -5.9 -10.6 69 -16 -16 980.7 979.8
22 23.03 СВ 7
{11}
н/о н/о -6.7 -12.1 65 -15 -15 981.8 981.0
23 23.03 СВ 4
{7}
н/о н/о -7.5 -12.0 70 -14 -14 982.7 981.9
00 24.03 СВ 5
{12}
н/о н/о -6.9 -11.4 70 -14 -14 983.4 982.6

 

Местоположение метеостанции Акселойа (Норвегия): широта 77.68 долгота 14.78 высота над уровнем моря 6 м.

В архиве по умолчанию представлена погода на Акселойа за последнюю неделю. Архивные данные за месяц целиком и за предыдущие месяцы, начиная с января 2011 года, Вы можете получить, выбрав интересующий диапазон дат из раскрывающегося списка и нажав кнопку "Ввод!".


*Определитесь, кто Вы:
робот инопланетянин человек

Внимание! Время в таблицах - всемирное. Для получения местного времени необходимо прибавить поправку, которая равна 1 ч.

Смотрите также архив погоды в соседних городах и на ближайших метеорологических станциях:

Погода в Баренцбурге (Шпицберген, Россия) (45 км)
Погода в Свальбард аэропорту (Норвегия) (66 км)
Погода на Хорнсунне (Норвегия) (78 км)
Погода в Пирамиде (Норвегия) (115 км)
Погода на Сёркаппёйа (Норвегия) (141 км)
Погода в Ню-Олесунн (Норвегия) (152 км)
Погода на Эдже (Норвегия) (197 км)
Погода на Верлегенхукен (Норвегия) (265 км)
Погода в Хопене (Норвегия) (285 км)
Погода на Конгсёйа (Норвегия) (346 км)

Пояснения к столбцам:

Ветер - указаны скорость ветра в м/с - средняя за 10 мин, порывы в срок и между сроками (в фигурных скобках) и направление, откуда дует ветер: С - северный, СВ - северо-восточный, В - восточный, ЮВ - юго-восточный, Ю - южный, ЮЗ - юго-западный, З - западный, СЗ - северо-западный.
Видимость - горизонтальная дальность видимости в метрах или километрах. При видимости от 1 до 10 км при отсутствии осадков обычно наблюдается дымка, при ухудшении видимости до 1 км и менее - туман. В сухую погоду видимость может ухудшаться дымом, пылью или мглою.
Явления - указаны атмосферные явления, наблюдавшиеся в срок или в последний час перед сроком; фигурными скобками обозначены явления, наблюдавшиеся между сроками (за 1-3 часа до срока); квадратными скобками обозначены град или гололедные отложения с указанием их диаметра в мм.
Облачность - указаны через наклонную черту общая и нижняя облачность в баллах и высота нижней границы облаков в метрах; квадратными скобками обозначены формы облаков: Ci - перистые, Cs - перисто-слоистые, Cc - перисто-кучевые, Ac - высококучевые, As - высокослоистые, Sc - слоисто-кучевые, Ns - слоисто-дождевые, Cu - кучевые, Cb - кучево-дождевые. Подробнее классификацию облаков см. в Атласе облаков (PDF).
T - Температура воздуха - температура, измеренная на высоте 2 м над землей.
Td - Температура точки росы - температура, при понижении до которой содержащийся в воздухе водяной пар достигнет насыщения.
f - Относительная влажность воздуха - влажноcть воздуха, измеренная на высоте 2 м над землей.
Te - Эффективная температура - температура, которую ощущает одетый по сезону человек в тени. Характеристика душности погоды. При расчете учитывается влияние влажности воздуха и скорости ветра на теплоощущения человека.
Tes - Эффективная температура на солнце - температура, которую ощущает человек, с поправкой на солнечный нагрев. Характеристика знойности погоды. Зависит от высоты солнца над горизонтом, облачности и скорости ветра. Ночью, в пасмурную погоду, а также при ветре 12 м/с и более поправка равна нулю.
P - Атмосферное давление - приведенное к уровню моря атмосферное давление.
Po - Атмосферное давление - измеренное на уровне метеостанции атмосферное давление.
Tmin - Минимальная температура - минимум температуры воздуха на высоте 2 м над землей.
Tmax - Максимальная температура - максимум температуры воздуха на высоте 2 м над землей.
R - Количество осадков - Количество выпавших осадков за период времени, мм. При наведении курсора мыши на число - период времени, за который выпало указанное количество осадков.
R24 - Количество осадков - Количество выпавших осадков за 24 часа, мм.
S - Снежный покров - Высота снежного покрова, см. При наведении курсора мыши на число - состояние снежного покрова и степень покрытия местности в баллах.